Weather observations for the past three days for
Nuevo Laredo International
Imperial (Metric)
Date Time (cdt) Wind (mph) Vis. (mi.) Weather Sky Cond. Temperature (ºF) Relative Humidity Wind Chill (°F) Heat Index (°F) Pressure Precipitation (in)
Air Dwpt 6 hour altimeter (in) sea level (mb) 1 hr 3 hr 6 hr
Max. Min.
07 07:03 N 9 5.00 Overcast OVC020 73.4 64.4 74% 29.9 1010.6
06 19:40 NE 8 8.00 A Few Clouds FEW220 93.2 71.6 50% 101 29.73 0.0
06 18:44 N 16 8.00 Partly Cloudy SCT220 93.2 71.6 50% 101 29.71 1004.2
06 17:40 NE 12 8.00 Partly Cloudy SCT220 93.2 71.6 50% 101 29.69 0.0
06 16:40 NE 8 5.00 Mostly Cloudy SCT030 BKN200 91.4 73.4 56% 100 29.71 0.0
06 15:40 N 9 4.00 Mostly Cloudy BKN030 BKN200 91.4 73.4 56% 100 29.73 1005.2
06 14:40 NW 9 4.00 Overcast OVC025 89.6 73.4 59% 98 29.76 0.0
06 13:40 N 8 4.00 Overcast OVC025 89.6 73.4 59% 98 29.78 0.0
06 12:40 Calm 4.00 Overcast OVC025 86 73.4 66% 93 29.79 1007.2
06 11:40 Calm 3.00 Overcast with Haze OVC025 84.2 73.4 70% 91 29.79 0.0
06 10:40 Calm 3.00 Overcast with Haze OVC025 82.4 73.4 74% 88 29.77 0.0
06 09:40 E 8 3.00 Overcast with Haze OVC020 82.4 73.4 74% 88 29.76 1006.1
06 08:41 E 8 4.00 Overcast OVC020 80.6 73.4 79% 85 29.75 0.0
06 07:00 Calm 7.00 Overcast OVC200 80.6 73.4 79% 85 29.73 1004.5
05 19:40 E 15 10.00 Mostly Cloudy BKN200 96.8 69.8 42% 103 29.59 0.0
05 18:40 E 13 10.00 Mostly Cloudy BKN220 100.4 68 35% 106 29.58 1000.1
05 17:40 E 8 10.00 Mostly Cloudy BKN220 100.4 66.2 33% 105 29.6 0.0
05 16:40 E 10 10.00 Partly Cloudy SCT220 100.4 69.8 37% 108 29.61 0.0
05 15:40 SE 9 10.00 Partly Cloudy SCT220 98.6 69.8 39% 106 29.63 1001.9
05 14:40 Calm 10.00 Partly Cloudy SCT220 95 68 41% 100 29.67 0.0
05 13:40 SE 10 10.00 Partly Cloudy SCT220 93.2 69.8 47% 99 29.7 0.0
05 12:40 SE 8 10.00 Partly Cloudy SCT220 91.4 69.8 49% 97 29.72 1004.9
05 11:40 S 9 10.00 Partly Cloudy SCT200 86 71.6 62% 92 29.74 0.0
05 10:40 SE 12 10.00 Partly Cloudy SCT020 SCT200 82.4 71.6 70% 87 29.75 0.0
05 09:40 S 7 7.00 Mostly Cloudy SCT015 BKN200 78.8 71.6 79% 82 29.75 1005.8
05 08:40 SE 13 6.00 Mostly Cloudy SCT015 BKN200 75.2 69.8 83% 75 29.75 0.0
05 07:00 SE 8 6.00 Mostly Cloudy BKN200 71.6 69.8 94% 29.73 1005.1
04 19:40 SE 13 10.00 Overcast OVC200 84.2 66.2 55% 87 29.77 0.0
04 18:40 SE 13 10.00 Mostly Cloudy BKN200 86 66.2 52% 88 29.77 1006.9
04 17:40 SE 14 10.00 Mostly Cloudy BKN200 86 66.2 52% 88 29.79 0.0
04 16:40 SE 13 10.00 Overcast OVC200 86 66.2 52% 88 29.81 0.0
04 15:40 SE 13 10.00 Overcast OVC040 84.2 66.2 55% 87 29.84 1009.0
04 14:40 SE 16 10.00 Overcast OVC025 82.4 64.4 55% 84 29.87 0.0
04 13:40 SE 14 10.00 Overcast OVC025 80.6 64.4 58% 82 29.89 0.0
04 12:40 SE 13 10.00 Overcast OVC025 78.8 64.4 61% 81 29.91 1011.4
04 11:40 SE 13 10.00 Overcast OVC020 78.8 64.4 61% 81 29.93 0.0
04 10:40 SE 14 10.00 Mostly Cloudy BKN020 BKN200 77 64.4 65% 79 29.93 0.0
04 09:40 SE 13 10.00 Mostly Cloudy BKN020 BKN200 73.4 64.4 74% 29.94 1012.5
04 08:43 SE 13 7.00 Partly Cloudy SCT020 SCT200 71.6 64.4 78% 29.94 0.0
Date Time (cdt) Wind (mph) Vis. (mi.) Weather Sky Cond. Air Dwpt Max. Min. Relative Humidity Wind Chill (°F) Heat Index (°F) altimeter (in) sea level (mb) 1 hr 3 hr 6 hr
6 hour
Temperature (ºF) Pressure Precipitation (in)